Newburgh, NY

11:56 AM EDT on October 19, 2019 (GMT -0400)
Stewart International

Weather History for KSWF - September, 2019

Change the Weather History Date:

Friday, September 20, 2019

  Actual Average Record
Temperature  
Mean Temperature 63 °F -  
Max Temperature 78 °F 69 °F 91 °F (1983)
Min Temperature 48 °F 50 °F 29 °F (1979)
Degree Days  
Heating Degree Days 2    
Growing Degree Days 13 (Base 50)    
Moisture  
Dew Point 48 °F    
Average Humidity 66    
Maximum Humidity 87    
Minimum Humidity 34    
Precipitation  
Precipitation 0.00 in - - ()
Sea Level Pressure  
Sea Level Pressure 30.22 in    
Wind  
Wind Speed 3 mph (West)    
Max Wind Speed 9 mph    
Max Gust Speed -    
Visibility 15 miles    
Events      
Averages and records for this station are not official NWS values.
T = Trace of Precipitation, MM = Missing Value Source: NWS Daily Summary

Daily Weather History Graph

Daily Weather History Graph

Search for Another Location

Airport or City:

Astronomy

Sep. 20, 2019 Rise Set
Actual Time 6:41 AM EDT 6:57 PM EDT
Civil Twilight 6:13 AM EDT 7:25 PM EDT
Nautical Twilight 5:41 AM EDT 7:57 PM EDT
Astronomical Twilight 5:08 AM EDT 8:30 PM EDT
Moon 10:41 PM EDT (9/20) 12:47 PM EDT (9/20)
Length of Visible Light 13h 11m
Length of Day
12h 15m
Waning Gibbous, 65% of the Moon is Illuminated
Sep 20
Waning Gibbous
Sep 21
Last Quarter
Sep 28
New
Oct 5
First Quarter
Oct 13
Full

Hourly Weather History & Observations

Time (EDT) Temp. Dew Point Humidity Pressure Visibility Wind Dir Wind Speed Gust Speed Precip Events Conditions
12:45 AM 48.2 °F 44.6 °F 87% 30.27 in 10.0 mi Calm Calm - N/A   Clear
1:45 AM 48.2 °F 44.6 °F 87% 30.27 in 10.0 mi Calm Calm - N/A   Clear
2:45 AM 48.2 °F 44.6 °F 87% 30.26 in 10.0 mi Calm Calm - N/A   Clear
3:45 AM 48.2 °F 44.6 °F 87% 30.25 in 10.0 mi Calm Calm - N/A   Clear
4:45 AM 48.2 °F 44.6 °F 87% 30.26 in 10.0 mi West 5.8 mph - N/A   Clear
5:45 AM 48.2 °F 42.8 °F 82% 30.26 in 10.0 mi West 5.8 mph - N/A   Clear
6:45 AM 48.2 °F 44.6 °F 87% 30.27 in 20.0 mi WSW 6.9 mph - N/A   Clear
7:45 AM 48.2 °F 44.6 °F 87% 30.28 in 20.0 mi West 6.9 mph - N/A   Clear
8:45 AM 55.4 °F 48.2 °F 77% 30.28 in 20.0 mi West 5.8 mph - N/A   Clear
9:45 AM 59.0 °F 48.2 °F 67% 30.28 in 20.0 mi WNW 9.2 mph - N/A   Scattered Clouds
10:45 AM 64.4 °F 50.0 °F 59% 30.27 in 20.0 mi WNW 9.2 mph - N/A   Scattered Clouds
11:45 AM 69.8 °F 50.0 °F 49% 30.25 in 20.0 mi Variable 5.8 mph - N/A   Scattered Clouds
12:45 PM 71.6 °F 48.2 °F 43% 30.23 in 20.0 mi Variable 5.8 mph - N/A   Scattered Clouds
1:45 PM 73.4 °F 48.2 °F 41% 30.20 in 20.0 mi West 5.8 mph - N/A   Scattered Clouds
2:45 PM 77.0 °F 48.2 °F 36% 30.18 in 20.0 mi Calm Calm - N/A   Scattered Clouds
3:45 PM 78.8 °F 48.2 °F 34% 30.16 in 20.0 mi Calm Calm - N/A   Clear
4:45 PM 78.8 °F 48.2 °F 34% 30.15 in 20.0 mi West 6.9 mph - N/A   Clear
5:45 PM 77.0 °F 48.2 °F 36% 30.15 in 20.0 mi Calm Calm - N/A   Clear
6:45 PM 73.4 °F 50.0 °F 44% 30.16 in 20.0 mi Calm Calm - N/A   Clear
7:45 PM 64.4 °F 53.6 °F 68% 30.17 in 10.0 mi Calm Calm - N/A   Clear
8:45 PM 62.6 °F 53.6 °F 72% 30.19 in 10.0 mi Calm Calm - N/A   Clear
9:45 PM 62.6 °F 53.6 °F 72% 30.19 in 10.0 mi Calm Calm - N/A   Clear
10:45 PM 62.6 °F 55.4 °F 77% 30.19 in 10.0 mi West 4.6 mph - N/A   Clear
11:45 PM 59.0 °F 53.6 °F 82% 30.19 in 7.0 mi West 5.8 mph - N/A   Clear